Location: Shannon
(40.5500°S, 175.4167°E)
Time: 21:08:22
(UTC+00:00)

Cosmos 1610 Rocket - Pass Details

Date: 17 November 2025
Orbit: 951 x 1002 km, 82.9° (Epoch: 14 December)

Event Time Altitude Azimuth Distance (km) Brightness Sun altitude
Exits shadow 13:09:47 82° 348° (NNW) 977 4.3 -28.4°
Maximum altitude 13:10:06 89° 272° (W) 969 4.3 -28.3°
Drops below altitude 10° 13:16:22 10° 173° (S) 2,724 7.8 -28.0°
Sets 13:18:54 0° 172° (S) 3,683 8.7 -27.8°
